Voltar ao catálogo

COSMOS 2251 DEB

AtivoLEO
NORAD 34056·DEBRIS·🇷🇺 Russia

Lançado Jun 16, 1993 de Plesetsk Cosmodrome

Loading…

Próximas Passagens (próximas 24 horas)

TLE

AtualizadoSource: Space-Track

Época: Sep 14, 2026, 13:43 UTC

1 34056U 93036JT  26257.57203222  .00002180  00000-0  91750-3 0  9990
2 34056  74.0569 302.4042 0127911 283.9493 230.0805 14.22053513903304

Acompanhe COSMOS 2251 DEB em tempo real com AllMySat

Download on the App Store